Weather History for Oskaloosa, IA

Change the Weather History Date:

Wednesday, December 5, 2012

  Actual Average (KOTM) Record (KOTM)
Temperature  
Mean Temperature 34 °F 29 °F  
Max Temperature 45 °F 38 °F 68 °F (2001)
Min Temperature 24 °F 20 °F -5 °F (2005)
Degree Days  
Heating Degree Days 30 36  
Month to date heating degree days 174  
Since 1 July heating degree days 1472  
Cooling Degree Days 0 0  
Month to date cooling degree days 0  
Year to date cooling degree days 938  
Moisture  
Dew Point 26 °F    
Average Humidity 64    
Maximum Humidity 81    
Minimum Humidity 48    
Precipitation  
Precipitation 0.00 in 0.05 in 1.33 in (1930)
Month to date precipitation 0.28  
Year to date precipitation 35.98  
Sea Level Pressure  
Sea Level Pressure 30.26 in    
Wind  
Wind Speed 10 mph (ESE)    
Max Wind Speed 17 mph    
Max Gust Speed -    
Visibility 10 miles    
Events      
T = Trace of Precipitation, MM = Missing Value Source: NWS Daily Summary

Daily Weather History Graph

Daily Weather History Graph

Search for Another Location

Airport:

Trip Planner

Search our weather history database for the weather conditions in past years. The results will help you decide how hot, cold, wet, or windy it might be!

Date:

Astronomy

Dec. 05, 2012 Rise Set
Actual Time 7:20 AM CST 4:40 PM CST
Civil Twilight 6:49 AM CST 5:11 PM CST
Nautical Twilight 6:15 AM CST 5:46 PM CST
Astronomical Twilight 5:41 AM CST 6:19 PM CST
Moon 11:34 PM CST (12/5) 11:41 AM CST (12/5)
Length of Visible Light 10h 22m
Length of Day
9h 20m
Waning Gibbous, 59% of the Moon is Illuminated
Dec 5
Waning Gibbous
Dec 6
Last Quarter
Dec 13
New
Dec 19
First Quarter
Dec 28
Full

Hourly Weather History & Observations

Time (CST) Temp. Windchill Dew Point Humidity Pressure Visibility Wind Dir Wind Speed Gust Speed Precip Events Conditions
12:15 AM 34.9 °F 26.2 °F 24.3 °F 65% 30.34 in 10.0 mi NNE 12.7 mph - N/A   Clear
12:35 AM 34.2 °F 25.2 °F 24.4 °F 68% 30.35 in 10.0 mi NNE 12.7 mph - N/A   Clear
12:55 AM 33.3 °F 24.6 °F 23.9 °F 69% 30.36 in 10.0 mi NNE 11.5 mph - N/A   Clear
1:15 AM 32.7 °F 23.0 °F 23.4 °F 68% 30.36 in 10.0 mi NNE 13.8 mph - N/A   Clear
1:55 AM 31.6 °F 22.1 °F 22.6 °F 69% 30.37 in 10.0 mi NNE 12.7 mph - N/A   Clear
2:15 AM 31.5 °F 25.8 °F 21.9 °F 68% 30.38 in 10.0 mi NE 5.8 mph - N/A   Clear
2:35 AM 31.1 °F 25.4 °F 21.6 °F 68% 30.38 in 10.0 mi NE 5.8 mph - N/A   Clear
2:55 AM 29.8 °F - 21.2 °F 70% 30.38 in 10.0 mi Calm Calm - N/A   Clear
3:15 AM 28.9 °F - 21.0 °F 72% 30.38 in 10.0 mi Calm Calm - N/A   Clear
3:35 AM 28.9 °F 23.9 °F 20.8 °F 72% 30.36 in 10.0 mi ENE 4.6 mph - N/A   Clear
3:55 AM 27.5 °F 23.6 °F 20.5 °F 75% 30.36 in 10.0 mi ENE 3.5 mph - N/A   Clear
4:15 AM 28.0 °F - 20.7 °F 74% 30.36 in 10.0 mi Calm Calm - N/A   Clear
4:35 AM 27.7 °F - 20.3 °F 74% 30.35 in 10.0 mi Calm Calm - N/A   Clear
4:55 AM 28.4 °F 24.6 °F 20.8 °F 73% 30.35 in 10.0 mi ENE 3.5 mph - N/A   Clear
5:15 AM 27.5 °F - 20.3 °F 74% 30.36 in 10.0 mi Calm Calm - N/A   Clear
5:35 AM 27.3 °F - 20.3 °F 75% 30.37 in 10.0 mi Calm Calm - N/A   Clear
5:55 AM 26.4 °F 20.9 °F 19.9 °F 77% 30.37 in 10.0 mi NE 4.6 mph - N/A   Clear
6:15 AM 26.1 °F 21.9 °F 20.3 °F 79% 30.38 in 10.0 mi East 3.5 mph - N/A   Clear
6:35 AM 25.3 °F 17.6 °F 19.6 °F 79% 30.39 in 10.0 mi East 6.9 mph - N/A   Clear
6:55 AM 24.4 °F 16.5 °F 19.4 °F 81% 30.38 in 10.0 mi East 6.9 mph - N/A   Clear
8:35 AM 30.2 °F 20.2 °F 22.8 °F 74% 30.36 in 10.0 mi ESE 12.7 mph - N/A   Clear
8:55 AM 32.0 °F 23.0 °F 23.7 °F 71% 30.37 in 10.0 mi ESE 11.5 mph - N/A   Clear
9:15 AM 32.7 °F 24.5 °F 23.9 °F 70% 30.38 in 10.0 mi ESE 10.4 mph - N/A   Clear
9:35 AM 34.5 °F 24.1 °F 24.1 °F 66% 30.38 in 10.0 mi SE 17.3 mph - N/A   Clear
9:55 AM 35.6 °F 26.6 °F 24.8 °F 65% 30.38 in 10.0 mi SE 13.8 mph - N/A   Clear
10:15 AM 36.9 °F 29.1 °F 24.6 °F 61% 30.37 in 10.0 mi SE 11.5 mph - N/A   Clear
10:35 AM 37.8 °F 29.4 °F 24.6 °F 59% 30.37 in 10.0 mi SE 13.8 mph - N/A   Clear
10:55 AM 38.8 °F 32.1 °F 24.8 °F 57% 30.36 in 10.0 mi SE 10.4 mph - N/A   Clear
11:15 AM 40.1 °F 33.6 °F 25.0 °F 55% 30.35 in 10.0 mi SE 10.4 mph - N/A   Clear
11:35 AM 41.0 °F 34.3 °F 25.0 °F 53% 30.33 in 10.0 mi ESE 11.5 mph - N/A   Clear
11:55 AM 41.0 °F 34.3 °F 25.2 °F 53% 30.31 in 10.0 mi ESE 11.5 mph - N/A   Clear
12:15 PM 41.5 °F 34.6 °F 25.2 °F 52% 30.30 in 10.0 mi SE 12.7 mph - N/A   Clear
12:35 PM 42.8 °F 36.2 °F 25.5 °F 51% 30.29 in 10.0 mi SE 12.7 mph - N/A   Clear
12:55 PM 44.1 °F 37.4 °F 26.1 °F 49% 30.28 in 10.0 mi SE 13.8 mph - N/A   Clear
1:15 PM 44.2 °F 37.6 °F 26.2 °F 49% 30.27 in 10.0 mi SE 13.8 mph - N/A   Clear
1:35 PM 44.6 °F 38.4 °F 26.6 °F 49% 30.26 in 10.0 mi SE 12.7 mph - N/A   Clear
1:55 PM 44.6 °F 38.4 °F 26.6 °F 49% 30.25 in 10.0 mi SE 12.7 mph - N/A   Clear
2:15 PM 45.5 °F 39.2 °F 27.1 °F 49% 30.23 in 10.0 mi SE 13.8 mph - N/A   Clear
2:35 PM 45.9 °F 39.7 °F 27.1 °F 48% 30.22 in 10.0 mi SE 13.8 mph - N/A   Clear
2:55 PM 45.5 °F 39.2 °F 27.0 °F 48% 30.22 in 10.0 mi SE 13.8 mph - N/A   Clear
3:15 PM 45.5 °F 39.6 °F 27.1 °F 49% 30.22 in 10.0 mi SE 12.7 mph - N/A   Clear
3:35 PM 45.1 °F 39.5 °F 27.3 °F 50% 30.21 in 10.0 mi SE 11.5 mph - N/A   Clear
3:55 PM 44.8 °F 38.3 °F 27.5 °F 51% 30.21 in 10.0 mi SE 13.8 mph - N/A   Clear
4:15 PM 44.2 °F 39.2 °F 27.9 °F 53% 30.20 in 10.0 mi SE 9.2 mph - N/A   Clear
4:35 PM 43.5 °F 37.9 °F 28.2 °F 55% 30.19 in 10.0 mi SE 10.4 mph - N/A   Clear
4:55 PM 43.0 °F 37.2 °F 28.4 °F 56% 30.18 in 10.0 mi SE 10.4 mph - N/A   Clear
5:15 PM 42.4 °F 37.0 °F 28.8 °F 58% 30.18 in 10.0 mi SE 9.2 mph - N/A   Clear
5:35 PM 42.4 °F 36.5 °F 29.1 °F 59% 30.18 in 10.0 mi SE 10.4 mph - N/A   Clear
5:55 PM 42.1 °F 36.1 °F 29.3 °F 61% 30.17 in 10.0 mi SE 10.4 mph - N/A   Clear
6:15 PM 41.9 °F 36.3 °F 30.0 °F 63% 30.17 in 10.0 mi SE 9.2 mph - N/A   Clear
6:35 PM 41.9 °F 35.4 °F 30.2 °F 63% 30.15 in 10.0 mi SE 11.5 mph - N/A   Clear
6:55 PM 41.4 °F 35.7 °F 30.6 °F 65% 30.15 in 10.0 mi SE 9.2 mph - N/A   Clear
7:15 PM 41.2 °F 35.0 °F 30.7 °F 66% 30.14 in 10.0 mi SE 10.4 mph - N/A   Clear
7:35 PM 41.0 °F 34.7 °F 30.9 °F 67% 30.14 in 10.0 mi SE 10.4 mph - N/A   Clear
7:55 PM 41.0 °F 34.3 °F 31.1 °F 68% 30.12 in 10.0 mi SE 11.5 mph - N/A   Clear
8:15 PM 41.0 °F 33.5 °F 31.1 °F 68% 30.11 in 10.0 mi SE 13.8 mph - N/A   Clear
8:35 PM 40.5 °F 32.5 °F 31.5 °F 70% 30.11 in 10.0 mi SE 15.0 mph - N/A   Clear
8:55 PM 40.5 °F 32.5 °F 31.8 °F 71% 30.10 in 10.0 mi SE 15.0 mph - N/A   Clear
9:15 PM 41.0 °F 33.1 °F 32.0 °F 70% 30.09 in 10.0 mi SE 15.0 mph - N/A   Clear
9:35 PM 41.0 °F 33.5 °F 32.2 °F 71% 30.08 in 10.0 mi SSE 13.8 mph - N/A   Clear
9:55 PM 41.0 °F 34.3 °F 32.5 °F 72% 30.08 in 10.0 mi SSE 11.5 mph - N/A   Clear
10:15 PM 41.4 °F 34.7 °F 32.9 °F 72% 30.08 in 10.0 mi SSE 11.5 mph - N/A   Clear
10:35 PM 41.5 °F 35.0 °F 33.3 °F 72% 30.07 in 10.0 mi SSE 11.5 mph - N/A   Clear
10:55 PM 41.7 °F 35.6 °F 33.8 °F 73% 30.07 in 10.0 mi SSE 10.4 mph - N/A   Clear
11:15 PM 42.6 °F 35.2 °F 34.0 °F 71% 30.06 in 10.0 mi SSE 15.0 mph - N/A   Clear
11:35 PM 42.8 °F 34.8 °F 34.3 °F 72% 30.05 in 10.0 mi SSE 17.3 mph - N/A   Clear
11:55 PM 43.3 °F 35.8 °F 34.7 °F 72% 30.05 in 10.0 mi SSE 16.1 mph - N/A   Clear